User: anonymous   Login
Location: Unspecified
(0.0000°N, 0.0000°E)
Time: 00:07:54
(UTC+00:00)
Language:

ARGOS - Orbit

View from above orbital plane
View from above orbital plane
View from above satellite
View from above satellite

Ground track
Ground track

The orbit data is extracted from the following two-line orbital elements,

1 25634U 99008A   21023.54424073 -.00000001  00000-0  19159-4 0  9994
2 25634  98.4366  58.2309 0010224   6.4312 353.6994 14.19386865134705
Epoch (UTC): 23 January 2021 13:03:42
Eccentricity: 0.0010224
inclination: 98.4366°
perigee height: 820 km
apogee height: 835 km
right ascension of ascending node: 58.2309°
argument of perigee: 6.4312°
revolutions per day: 14.19386865
mean anomaly at epoch: 353.6994°
orbit number at epoch: 13470

The dashed part of the orbit path shows where the satellite is in the earth's shadow,  

DLR